Location: Arcizac
(43.0933°N, 0.0112°E)
Time: 17:08:23
(UTC+00:00)

Cosmos 1655 Rocket - Pass Details

Date: 14 December 2019
Orbit: 970 x 1006 km, 83.0° (Epoch: 29 January)

Event Time Altitude Azimuth Distance (km) Brightness Sun altitude
Rises 18:36:31 0° 191° (SSW) 3,695 7.3 -23.0°
Reaches altitude 10° 18:39:03 10° 193° (SSW) 2,745 6.6 -23.5°
Maximum altitude 18:45:20 74° 279° (W) 1,025 4.1 -24.6°
Drops below altitude 10° 18:51:37 10° 4° (N) 2,738 6.2 -25.8°
Enters shadow 18:53:55 - 7° (N) 3,601 6.8 -26.2°
